sat.trackr.live / text

‹ back to catalog

STARLINK-1663

NORAD 46535 · 2020-070D

PAYLOAD ACTIVE UNKNOWN

§ Identity

Operator
Country
US
Launch date
2020-10-06
Launch site
AFETR
Launch vehicle
Mass (kg)
RCS (m²)

Purposes: comms

External: N2YO · Heavens-Above · Gunter

§ Orbital elements

Epoch: 2026-07-01T12:35:58.015392Z

Period
87.94 min
Inclination
53.0163°
Eccentricity
0.0009270
Mean motion
16.37539101 rev/d
Perigee alt
166.3 km
Apogee alt
178.4 km
Semi-major
6,550.5 km
B*
6.6074e-4
RAAN
282.6120°
Arg perigee
310.8021°
Mean anomaly
49.2219°
Rev number
31,809

§ Raw data

STARLINK-16631 46535U 20070D   26182.52497703  .06895339  12377-4  66074-3 0  99912 46535  53.0163 282.6120 0009270 310.8021  49.2219 16.37539101318091

JSON: /api/v1/satellites/46535 · /tle

For live sub-satellite position, see the globe view (requires WebGL).

§ Visibility from observer

Set your observer location to see the next 7 days of passes ≥ 10°. The values pass through the URL so the page stays shareable.

No JS? Fill the form by hand. The geolocation button needs JavaScript.